Tracking 27420 objects as of 28-May-2023
HD Live streaming from Space Station
objects crossing your sky now

FLOCK 4V 24

Track FLOCK 4V 24 now!
10-day predictions


NORAD ID: 46738
Int'l Code: 2020-061BN
Perigee: 451.6 km
Apogee: 455.7 km
Inclination: 97.4 °
Period: 93.5 minutes
Semi major axis: 6824 km
RCS: Unknown
Launch date: September 3, 2020
Source: United States (US)
Launch site: FRENCH GUIANA (FRGUI)
Your satellite tracking list
Your tracking list is empty




NASA's NSSDC Master Catalog

Two Line Element Set (TLE):
1 46738U 20061BN  23147.20587997  .00018433  00000-0  46550-3 0  9993
2 46738  97.3580 220.3238 0003032  29.2794 330.8621 15.39868912143703
Source of the keplerian elements: AFSPC